Time,TemperatureF,DewpointF,PressureIn,WindDirection,WindDirectionDegrees,WindSpeedMPH,WindSpeedGustMPH,Humidity,HourlyPrecipIn,Conditions,Clouds,dailyrainin,SolarRadiationWatts/m^2,SoftwareType,DateUTC
2013-01-29 00:03:00,32.2,31.5,29.77,South,176,5.0,8.0,97,0.01,,,0.20,0.0,meteohub,2013-01-29 06:03:00,
2013-01-29 00:09:00,32.2,31.5,29.77,SSE,168,2.0,8.0,97,0.01,,,0.20,0.0,meteohub,2013-01-29 06:09:00,
2013-01-29 00:15:00,32.2,31.5,29.77,SSE,168,1.0,8.0,97,0.01,,,0.20,0.0,meteohub,2013-01-29 06:15:00,
2013-01-29 00:22:00,32.2,31.5,29.77,SSE,166,3.0,8.0,97,0.01,,,0.00,0.0,meteohub,2013-01-29 06:22:00,
2013-01-29 00:28:00,32.4,31.6,29.77,SSE,148,1.0,8.0,97,0.01,,,0.00,0.0,meteohub,2013-01-29 06:28:00,
2013-01-29 00:34:00,32.4,31.6,29.75,SSE,157,0.0,4.0,97,0.01,,,0.00,0.0,meteohub,2013-01-29 06:34:00,
2013-01-29 00:40:00,32.4,31.6,29.75,SSE,157,0.0,4.0,97,0.01,,,0.00,0.0,meteohub,2013-01-29 06:40:00,
2013-01-29 00:46:00,32.4,31.6,29.75,SSE,157,0.0,4.0,97,0.01,,,0.01,0.0,meteohub,2013-01-29 06:46:00,
2013-01-29 00:53:00,32.4,31.6,29.74,SSE,157,0.0,4.0,97,0.02,,,0.01,0.0,meteohub,2013-01-29 06:53:00,
2013-01-29 00:59:00,32.4,31.6,29.74,SSE,157,0.0,2.0,97,0.02,,,0.01,0.0,meteohub,2013-01-29 06:59:00,
2013-01-29 01:05:00,32.4,31.6,29.73,SSE,157,0.0,2.0,97,0.02,,,0.01,0.0,meteohub,2013-01-29 07:05:00,
2013-01-29 01:11:00,32.4,31.6,29.73,ESE,120,1.0,2.0,97,0.02,,,0.01,0.0,meteohub,2013-01-29 07:11:00,
2013-01-29 01:17:00,32.4,31.6,29.73,ESE,119,0.0,2.0,97,0.01,,,0.01,0.0,meteohub,2013-01-29 07:17:00,
2013-01-29 01:22:00,32.5,31.8,29.73,ESE,120,0.0,2.0,97,0.01,,,0.01,0.0,meteohub,2013-01-29 07:22:00,
2013-01-29 01:28:00,32.4,31.6,29.73,ESE,120,0.0,2.0,97,0.01,,,0.01,0.0,meteohub,2013-01-29 07:28:00,
2013-01-29 01:34:00,32.5,31.8,29.73,ESE,120,0.0,2.0,97,0.01,,,0.01,0.0,meteohub,2013-01-29 07:34:00,
2013-01-29 01:40:00,32.5,31.8,29.72,ESE,119,0.0,1.0,97,0.00,,,0.01,0.0,meteohub,2013-01-29 07:40:00,
2013-01-29 01:46:00,32.5,31.8,29.71,ESE,120,0.0,1.0,97,0.00,,,0.01,0.0,meteohub,2013-01-29 07:46:00,
2013-01-29 01:53:00,32.4,31.6,29.71,ESE,119,1.0,1.0,97,0.00,,,0.01,0.0,meteohub,2013-01-29 07:53:00,
2013-01-29 01:59:00,32.4,31.6,29.71,ESE,120,1.0,2.0,97,0.00,,,0.01,0.0,meteohub,2013-01-29 07:59:00,
2013-01-29 02:05:00,32.4,31.6,29.70,East,96,0.0,2.0,97,0.00,,,0.01,0.0,meteohub,2013-01-29 08:05:00,
2013-01-29 02:11:00,32.5,31.8,29.70,East,96,0.0,2.0,97,0.00,,,0.01,0.0,meteohub,2013-01-29 08:11:00,
2013-01-29 02:17:00,32.5,31.8,29.71,NNW,336,1.0,3.0,97,0.00,,,0.01,0.0,meteohub,2013-01-29 08:17:00,
2013-01-29 02:24:00,32.5,31.8,29.70,NNW,336,0.0,3.0,97,0.00,,,0.01,0.0,meteohub,2013-01-29 08:24:00,
2013-01-29 02:30:00,32.5,32.0,29.70,NNW,336,1.0,3.0,98,0.00,,,0.01,0.0,meteohub,2013-01-29 08:30:00,
2013-01-29 02:36:00,32.5,32.0,29.70,NNW,337,1.0,3.0,98,0.00,,,0.01,0.0,meteohub,2013-01-29 08:36:00,
2013-01-29 02:42:00,32.5,32.0,29.70,NNW,338,0.0,3.0,98,0.00,,,0.01,0.0,meteohub,2013-01-29 08:42:00,
2013-01-29 02:48:00,32.5,31.8,29.69,NNW,338,0.0,3.0,97,0.00,,,0.01,0.0,meteohub,2013-01-29 08:48:00,
2013-01-29 02:54:00,32.4,31.6,29.69,NNW,338,1.0,4.0,97,0.00,,,0.01,0.0,meteohub,2013-01-29 08:54:00,
2013-01-29 03:01:00,32.5,32.0,29.70,NNW,338,1.0,4.0,98,0.01,,,0.02,0.0,meteohub,2013-01-29 09:01:00,
2013-01-29 03:07:00,32.5,32.0,29.70,NNW,338,2.0,4.0,98,0.01,,,0.02,0.0,meteohub,2013-01-29 09:07:00,
2013-01-29 03:13:00,32.5,32.0,29.70,NNW,339,1.0,4.0,98,0.01,,,0.02,0.0,meteohub,2013-01-29 09:13:00,
2013-01-29 03:19:00,32.5,31.8,29.70,NNW,339,1.0,4.0,97,0.01,,,0.02,0.0,meteohub,2013-01-29 09:19:00,
2013-01-29 03:25:00,32.4,31.6,29.70,NNW,339,1.0,4.0,97,0.01,,,0.02,0.0,meteohub,2013-01-29 09:25:00,
2013-01-29 03:32:00,32.4,31.6,29.70,NNW,339,2.0,4.0,97,0.01,,,0.02,0.0,meteohub,2013-01-29 09:32:00,
2013-01-29 03:38:00,32.5,31.8,29.71,NNW,339,1.0,4.0,97,0.01,,,0.02,0.0,meteohub,2013-01-29 09:38:00,
2013-01-29 03:44:00,32.5,32.0,29.71,NNW,339,1.0,4.0,98,0.01,,,0.02,0.0,meteohub,2013-01-29 09:44:00,
2013-01-29 03:50:00,32.4,31.6,29.70,NNW,341,1.0,3.0,97,0.01,,,0.02,0.0,meteohub,2013-01-29 09:50:00,
2013-01-29 03:56:00,32.4,31.6,29.70,NNW,341,1.0,3.0,97,0.01,,,0.02,0.0,meteohub,2013-01-29 09:56:00,
2013-01-29 04:02:00,32.4,31.6,29.68,NNW,341,0.0,3.0,97,0.00,,,0.02,0.0,meteohub,2013-01-29 10:02:00,
2013-01-29 04:07:00,32.4,31.6,29.68,NNW,342,3.0,4.0,97,0.00,,,0.02,0.0,meteohub,2013-01-29 10:07:00,
2013-01-29 04:13:00,32.4,31.6,29.69,NNW,342,0.0,4.0,97,0.00,,,0.02,0.0,meteohub,2013-01-29 10:13:00,
2013-01-29 04:19:00,32.4,31.6,29.69,NNW,342,0.0,4.0,97,0.00,,,0.02,0.0,meteohub,2013-01-29 10:19:00,
2013-01-29 04:25:00,32.4,31.6,29.69,NNW,342,1.0,4.0,97,0.00,,,0.02,0.0,meteohub,2013-01-29 10:25:00,
2013-01-29 04:31:00,32.4,31.6,29.69,NNW,342,0.0,4.0,97,0.00,,,0.02,0.0,meteohub,2013-01-29 10:31:00,
2013-01-29 04:38:00,32.4,31.6,29.69,NNW,342,2.0,3.0,97,0.00,,,0.02,0.0,meteohub,2013-01-29 10:38:00,
2013-01-29 04:44:00,32.4,31.6,29.69,NNW,342,1.0,3.0,97,0.00,,,0.02,0.0,meteohub,2013-01-29 10:44:00,
2013-01-29 04:50:00,32.4,31.6,29.69,NNW,342,1.0,3.0,97,0.00,,,0.02,0.0,meteohub,2013-01-29 10:50:00,
2013-01-29 04:56:00,32.4,31.6,29.68,NNW,342,1.0,4.0,97,0.00,,,0.02,0.0,meteohub,2013-01-29 10:56:00,
2013-01-29 05:02:00,32.4,31.6,29.68,NNW,345,3.0,4.0,97,0.00,,,0.02,0.0,meteohub,2013-01-29 11:02:00,
2013-01-29 05:09:00,32.4,31.6,29.69,NNW,344,3.0,4.0,97,0.00,,,0.02,0.0,meteohub,2013-01-29 11:09:00,
2013-01-29 05:15:00,32.4,31.6,29.68,NW,321,1.0,4.0,97,0.00,,,0.02,0.0,meteohub,2013-01-29 11:15:00,
2013-01-29 05:21:00,32.4,31.6,29.69,NNW,342,3.0,5.0,97,0.00,,,0.02,0.0,meteohub,2013-01-29 11:21:00,
2013-01-29 05:27:00,32.4,31.6,29.68,NNW,346,0.0,5.0,97,0.00,,,0.02,0.0,meteohub,2013-01-29 11:27:00,
2013-01-29 05:33:00,32.4,31.6,29.69,NNW,348,0.0,5.0,97,0.00,,,0.02,0.0,meteohub,2013-01-29 11:33:00,
2013-01-29 05:40:00,32.4,31.6,29.68,NNW,347,1.0,5.0,97,0.00,,,0.02,0.0,meteohub,2013-01-29 11:40:00,
2013-01-29 05:46:00,32.4,31.6,29.69,NW,316,2.0,5.0,97,0.00,,,0.02,0.0,meteohub,2013-01-29 11:46:00,
2013-01-29 05:52:00,32.2,31.5,29.67,NNW,340,3.0,5.0,97,0.00,,,0.02,0.0,meteohub,2013-01-29 11:52:00,
2013-01-29 05:58:00,32.2,31.6,29.65,NNW,341,2.0,5.0,98,0.00,,,0.02,0.0,meteohub,2013-01-29 11:58:00,
2013-01-29 06:04:00,32.2,31.6,29.65,North,355,2.0,5.0,98,0.00,,,0.02,0.0,meteohub,2013-01-29 12:04:00,
2013-01-29 06:11:00,32.2,31.6,29.68,North,355,0.0,5.0,98,0.00,,,0.02,0.0,meteohub,2013-01-29 12:11:00,
2013-01-29 06:17:00,32.2,31.6,29.68,North,355,1.0,5.0,98,0.00,,,0.02,0.0,meteohub,2013-01-29 12:17:00,
2013-01-29 06:23:00,32.2,31.6,29.67,North,351,2.0,9.0,98,0.00,,,0.02,0.0,meteohub,2013-01-29 12:23:00,
2013-01-29 06:29:00,32.0,31.5,29.68,North,355,0.0,9.0,98,0.00,,,0.02,0.0,meteohub,2013-01-29 12:29:00,
2013-01-29 06:36:00,32.0,31.5,29.67,North,351,0.0,9.0,98,0.00,,,0.02,0.0,meteohub,2013-01-29 12:36:00,
2013-01-29 06:42:00,32.2,31.6,29.68,North,355,0.0,9.0,98,0.00,,,0.02,0.0,meteohub,2013-01-29 12:42:00,
2013-01-29 06:48:00,32.2,31.6,29.68,North,351,0.0,9.0,98,0.00,,,0.02,0.0,meteohub,2013-01-29 12:48:00,
2013-01-29 06:54:00,32.2,31.6,29.68,North,351,1.0,9.0,98,0.00,,,0.02,0.0,meteohub,2013-01-29 12:54:00,
2013-01-29 07:01:00,32.2,31.6,29.68,North,351,0.0,2.0,98,0.00,,,0.02,0.0,meteohub,2013-01-29 13:01:00,
2013-01-29 07:07:00,32.2,31.6,29.69,North,351,2.0,2.0,98,0.00,,,0.02,0.0,meteohub,2013-01-29 13:07:00,
2013-01-29 07:13:00,32.2,31.6,29.69,North,351,0.0,2.0,98,0.00,,,0.02,0.0,meteohub,2013-01-29 13:13:00,
2013-01-29 07:19:00,32.2,31.6,29.70,North,351,0.0,2.0,98,0.00,,,0.02,0.0,meteohub,2013-01-29 13:19:00,
2013-01-29 07:26:00,32.2,31.6,29.69,North,351,1.0,2.0,98,0.00,,,0.02,0.0,meteohub,2013-01-29 13:26:00,
2013-01-29 07:32:00,32.2,31.6,29.69,North,351,0.0,2.0,98,0.00,,,0.02,0.0,meteohub,2013-01-29 13:32:00,
2013-01-29 07:38:00,32.2,31.6,29.69,North,351,0.0,2.0,98,0.00,,,0.02,0.0,meteohub,2013-01-29 13:38:00,
2013-01-29 07:44:00,32.2,31.6,29.69,North,351,0.0,2.0,98,0.00,,,0.02,0.0,meteohub,2013-01-29 13:44:00,
2013-01-29 07:50:00,32.2,31.6,29.70,North,351,0.0,3.0,98,0.00,,,0.02,5.0,meteohub,2013-01-29 13:50:00,
2013-01-29 07:57:00,32.2,31.6,29.70,North,351,0.0,3.0,98,0.00,,,0.02,9.0,meteohub,2013-01-29 13:57:00,
2013-01-29 08:03:00,32.2,31.6,29.70,North,350,0.0,3.0,98,0.00,,,0.02,12.0,meteohub,2013-01-29 14:03:00,
2013-01-29 08:09:00,32.2,31.6,29.70,NNW,331,1.0,3.0,98,0.00,,,0.02,16.0,meteohub,2013-01-29 14:09:00,
2013-01-29 08:15:00,32.2,31.6,29.71,NNW,331,0.0,5.0,98,0.00,,,0.02,14.0,meteohub,2013-01-29 14:15:00,
2013-01-29 08:21:00,32.2,31.6,29.72,NW,325,2.0,5.0,98,0.00,,,0.02,19.0,meteohub,2013-01-29 14:21:00,
2013-01-29 08:28:00,32.4,31.8,29.73,WSW,254,8.0,8.0,98,0.00,,,0.02,18.0,meteohub,2013-01-29 14:28:00,
2013-01-29 08:34:00,32.4,31.8,29.73,WNW,302,1.0,9.0,98,0.00,,,0.02,25.0,meteohub,2013-01-29 14:34:00,
2013-01-29 08:40:00,32.4,31.8,29.72,NNW,343,3.0,9.0,98,0.00,,,0.02,28.0,meteohub,2013-01-29 14:40:00,
2013-01-29 08:46:00,32.4,31.8,29.71,North,355,4.0,9.0,98,0.00,,,0.02,25.0,meteohub,2013-01-29 14:46:00,
2013-01-29 08:52:00,32.4,31.8,29.71,NW,309,2.0,8.0,98,0.00,,,0.02,49.0,meteohub,2013-01-29 14:52:00,
2013-01-29 08:59:00,32.4,31.8,29.71,NW,313,0.0,8.0,98,0.00,,,0.02,42.0,meteohub,2013-01-29 14:59:00,
2013-01-29 09:05:00,32.4,31.6,29.73,West,269,1.0,8.0,97,0.00,,,0.02,42.0,meteohub,2013-01-29 15:05:00,
2013-01-29 09:11:00,32.4,31.6,29.74,WNW,288,1.0,7.0,97,0.00,,,0.02,46.0,meteohub,2013-01-29 15:11:00,
2013-01-29 09:17:00,32.4,31.6,29.74,WNW,282,0.0,7.0,97,0.00,,,0.02,53.0,meteohub,2013-01-29 15:17:00,
2013-01-29 09:23:00,32.5,32.0,29.74,West,273,1.0,7.0,98,0.00,,,0.02,44.0,meteohub,2013-01-29 15:23:00,
2013-01-29 09:30:00,32.5,32.0,29.74,North,0,3.0,5.0,98,0.00,,,0.02,46.0,meteohub,2013-01-29 15:30:00,
2013-01-29 09:36:00,32.5,32.0,29.73,NNW,329,3.0,5.0,98,0.00,,,0.02,49.0,meteohub,2013-01-29 15:36:00,
2013-01-29 09:42:00,32.4,31.8,29.73,WNW,298,2.0,5.0,98,0.00,,,0.02,67.0,meteohub,2013-01-29 15:42:00,
2013-01-29 09:48:00,32.5,32.0,29.73,WNW,286,3.0,5.0,98,0.00,,,0.02,54.0,meteohub,2013-01-29 15:48:00,
2013-01-29 09:54:00,32.5,32.0,29.73,NNW,333,4.0,6.0,98,0.00,,,0.02,69.0,meteohub,2013-01-29 15:54:00,
2013-01-29 10:00:00,32.5,32.0,29.73,WNW,298,0.0,6.0,98,0.00,,,0.02,84.0,meteohub,2013-01-29 16:00:00,
2013-01-29 10:07:00,32.7,32.2,29.73,West,272,2.0,6.0,98,0.00,,,0.02,100.0,meteohub,2013-01-29 16:07:00,
2013-01-29 10:13:00,32.7,32.0,29.73,NW,318,1.0,9.0,97,0.00,,,0.02,104.0,meteohub,2013-01-29 16:13:00,
2013-01-29 10:19:00,32.7,32.0,29.74,NW,307,1.0,9.0,97,0.00,,,0.02,97.0,meteohub,2013-01-29 16:19:00,
2013-01-29 10:25:00,32.9,32.4,29.75,WNW,302,3.0,9.0,98,0.00,,,0.02,86.0,meteohub,2013-01-29 16:25:00,
2013-01-29 10:31:00,33.1,32.4,29.75,North,9,2.0,9.0,97,0.00,,,0.02,141.0,meteohub,2013-01-29 16:31:00,
2013-01-29 10:38:00,33.3,32.5,29.76,WNW,303,0.0,9.0,97,0.00,,,0.02,149.0,meteohub,2013-01-29 16:38:00,
2013-01-29 10:44:00,33.3,32.5,29.77,NNW,327,3.0,9.0,97,0.00,,,0.02,142.0,meteohub,2013-01-29 16:44:00,
2013-01-29 10:50:00,33.3,32.5,29.76,NNW,328,4.0,7.0,97,0.00,,,0.02,76.0,meteohub,2013-01-29 16:50:00,
2013-01-29 10:56:00,33.3,32.5,29.76,North,5,5.0,7.0,97,0.00,,,0.02,120.0,meteohub,2013-01-29 16:56:00,
2013-01-29 11:02:00,33.3,32.5,29.76,North,355,3.0,7.0,97,0.00,,,0.02,125.0,meteohub,2013-01-29 17:02:00,
2013-01-29 11:08:00,33.3,32.5,29.76,NNW,335,5.0,7.0,97,0.00,,,0.02,114.0,meteohub,2013-01-29 17:08:00,
2013-01-29 11:15:00,33.4,32.4,29.76,North,349,4.0,14.0,96,0.00,,,0.02,186.0,meteohub,2013-01-29 17:15:00,
2013-01-29 11:21:00,33.4,32.4,29.76,North,0,3.0,14.0,96,0.00,,,0.02,153.0,meteohub,2013-01-29 17:21:00,
2013-01-29 11:27:00,33.4,32.2,29.77,NW,319,6.0,14.0,95,0.00,,,0.02,116.0,meteohub,2013-01-29 17:27:00,
2013-01-29 11:33:00,33.6,32.4,29.77,North,5,3.0,10.0,95,0.00,,,0.02,172.0,meteohub,2013-01-29 17:33:00,
2013-01-29 11:39:00,33.8,32.5,29.78,North,349,4.0,10.0,95,0.00,,,0.02,211.0,meteohub,2013-01-29 17:39:00,
2013-01-29 11:46:00,34.2,32.9,29.79,NW,308,1.0,10.0,95,0.00,,,0.02,190.0,meteohub,2013-01-29 17:46:00,
2013-01-29 11:52:00,34.2,32.9,29.79,NW,315,1.0,7.0,95,0.00,,,0.02,146.0,meteohub,2013-01-29 17:52:00,
2013-01-29 11:58:00,34.3,32.7,29.78,NNW,332,1.0,7.0,94,0.00,,,0.02,165.0,meteohub,2013-01-29 17:58:00,
2013-01-29 12:04:00,34.3,32.5,29.78,NNW,328,5.0,7.0,93,0.00,,,0.02,192.0,meteohub,2013-01-29 18:04:00,
2013-01-29 12:10:00,34.7,32.9,29.78,WNW,294,2.0,7.0,93,0.00,,,0.02,193.0,meteohub,2013-01-29 18:10:00,
2013-01-29 12:17:00,34.7,32.5,29.78,North,355,2.0,9.0,92,0.00,,,0.02,227.0,meteohub,2013-01-29 18:17:00,
2013-01-29 12:23:00,34.9,32.7,29.78,NNW,335,2.0,9.0,92,0.00,,,0.02,207.0,meteohub,2013-01-29 18:23:00,
2013-01-29 12:29:00,35.1,32.7,29.78,North,5,3.0,9.0,91,0.00,,,0.02,192.0,meteohub,2013-01-29 18:29:00,
2013-01-29 12:35:00,35.1,32.7,29.78,North,355,2.0,9.0,91,0.00,,,0.02,165.0,meteohub,2013-01-29 18:35:00,
2013-01-29 12:41:00,35.1,32.4,29.76,North,351,3.0,9.0,90,0.00,,,0.02,163.0,meteohub,2013-01-29 18:41:00,
2013-01-29 12:47:00,35.1,32.7,29.76,NNE,15,0.0,9.0,91,0.00,,,0.02,109.0,meteohub,2013-01-29 18:47:00,
2013-01-29 12:52:00,35.1,32.7,29.77,North,355,5.0,9.0,91,0.00,,,0.02,127.0,meteohub,2013-01-29 18:52:00,
2013-01-29 12:58:00,35.1,32.4,29.77,NNW,343,1.0,9.0,90,0.00,,,0.02,130.0,meteohub,2013-01-29 18:58:00,
2013-01-29 13:04:00,35.1,32.2,29.77,NNW,332,2.0,9.0,89,0.00,,,0.02,230.0,meteohub,2013-01-29 19:04:00,
2013-01-29 13:10:00,35.2,32.5,29.77,North,350,2.0,11.0,90,0.00,,,0.02,123.0,meteohub,2013-01-29 19:10:00,
2013-01-29 13:17:00,35.2,32.5,29.77,NW,315,2.0,11.0,90,0.00,,,0.02,197.0,meteohub,2013-01-29 19:17:00,
2013-01-29 13:23:00,35.4,32.5,29.76,NW,308,2.0,11.0,89,0.00,,,0.02,272.0,meteohub,2013-01-29 19:23:00,
2013-01-29 13:29:00,35.4,32.5,29.76,North,350,5.0,11.0,89,0.00,,,0.02,195.0,meteohub,2013-01-29 19:29:00,
2013-01-29 13:35:00,35.4,32.5,29.76,NNW,339,3.0,7.0,89,0.00,,,0.02,114.0,meteohub,2013-01-29 19:35:00,
2013-01-29 13:41:00,35.2,32.4,29.75,NNW,346,5.0,7.0,89,0.00,,,0.02,220.0,meteohub,2013-01-29 19:41:00,
2013-01-29 13:47:00,35.1,32.2,29.75,NW,319,4.0,7.0,89,0.00,,,0.02,118.0,meteohub,2013-01-29 19:47:00,
2013-01-29 13:52:00,35.1,32.2,29.75,NE,48,0.0,10.0,89,0.00,,,0.02,113.0,meteohub,2013-01-29 19:52:00,
2013-01-29 13:58:00,35.1,32.2,29.74,NE,41,1.0,10.0,89,0.00,,,0.02,142.0,meteohub,2013-01-29 19:58:00,
2013-01-29 14:02:00,35.1,32.2,29.74,NNW,339,1.0,10.0,89,0.00,,,0.02,195.0,meteohub,2013-01-29 20:02:00,
2013-01-29 14:08:00,35.1,31.8,29.75,North,355,3.0,10.0,88,0.00,,,0.02,127.0,meteohub,2013-01-29 20:08:00,
2013-01-29 14:15:00,35.1,31.8,29.74,NNW,343,6.0,11.0,88,0.00,,,0.02,158.0,meteohub,2013-01-29 20:15:00,
2013-01-29 14:21:00,35.1,32.2,29.74,NNW,335,4.0,11.0,89,0.00,,,0.02,137.0,meteohub,2013-01-29 20:21:00,
2013-01-29 14:27:00,35.2,32.0,29.75,NNW,340,2.0,11.0,88,0.00,,,0.02,132.0,meteohub,2013-01-29 20:27:00,
2013-01-29 14:33:00,35.2,32.0,29.74,North,0,3.0,11.0,88,0.00,,,0.02,127.0,meteohub,2013-01-29 20:33:00,
2013-01-29 14:39:00,35.2,31.8,29.75,NW,315,5.0,11.0,87,0.00,,,0.02,130.0,meteohub,2013-01-29 20:39:00,
2013-01-29 14:46:00,35.2,33.1,29.74,NNE,21,3.0,11.0,92,0.00,,,0.02,114.0,meteohub,2013-01-29 20:46:00,
2013-01-29 14:52:00,35.2,31.8,29.75,NNW,344,3.0,11.0,87,0.00,,,0.02,125.0,meteohub,2013-01-29 20:52:00,
2013-01-29 14:58:00,35.2,31.8,29.75,NNW,332,4.0,11.0,87,0.00,,,0.02,105.0,meteohub,2013-01-29 20:58:00,
2013-01-29 15:04:00,35.2,31.8,29.76,NNW,338,1.0,11.0,87,0.00,,,0.02,98.0,meteohub,2013-01-29 21:04:00,
2013-01-29 15:10:00,35.4,32.0,29.76,North,9,4.0,11.0,87,0.00,,,0.02,128.0,meteohub,2013-01-29 21:10:00,
2013-01-29 15:16:00,35.2,31.5,29.76,East,80,2.0,9.0,86,0.00,,,0.02,111.0,meteohub,2013-01-29 21:16:00,
2013-01-29 15:23:00,35.2,31.8,29.76,NNE,23,3.0,9.0,87,0.00,,,0.02,105.0,meteohub,2013-01-29 21:23:00,
2013-01-29 15:29:00,35.2,31.5,29.77,NNE,13,2.0,9.0,86,0.00,,,0.02,90.0,meteohub,2013-01-29 21:29:00,
2013-01-29 15:35:00,35.1,31.6,29.77,NNE,30,3.0,10.0,87,0.00,,,0.02,98.0,meteohub,2013-01-29 21:35:00,
2013-01-29 15:41:00,35.1,31.3,29.78,North,5,2.0,10.0,86,0.00,,,0.02,65.0,meteohub,2013-01-29 21:41:00,
2013-01-29 15:47:00,34.9,31.1,29.78,North,355,1.0,10.0,86,0.00,,,0.02,69.0,meteohub,2013-01-29 21:47:00,
2013-01-29 15:52:00,34.9,31.5,29.78,North,11,4.0,12.0,87,0.00,,,0.02,56.0,meteohub,2013-01-29 21:52:00,
2013-01-29 15:58:00,34.9,31.5,29.79,North,355,2.0,12.0,87,0.00,,,0.02,53.0,meteohub,2013-01-29 21:58:00,
2013-01-29 16:04:00,34.7,31.3,29.78,North,0,2.0,12.0,87,0.00,,,0.02,49.0,meteohub,2013-01-29 22:04:00,
2013-01-29 16:10:00,34.7,31.3,29.78,North,355,1.0,12.0,87,0.00,,,0.02,47.0,meteohub,2013-01-29 22:10:00,
2013-01-29 16:16:00,34.5,31.1,29.78,ENE,69,2.0,7.0,87,0.00,,,0.02,25.0,meteohub,2013-01-29 22:16:00,
2013-01-29 16:23:00,34.3,30.9,29.77,North,5,2.0,7.0,87,0.00,,,0.02,25.0,meteohub,2013-01-29 22:23:00,
2013-01-29 16:29:00,34.3,30.9,29.78,NNW,336,3.0,7.0,87,0.00,,,0.02,21.0,meteohub,2013-01-29 22:29:00,
2013-01-29 16:35:00,34.3,31.1,29.78,NNW,337,0.0,7.0,88,0.00,,,0.02,21.0,meteohub,2013-01-29 22:35:00,
2013-01-29 16:41:00,34.3,30.9,29.78,NNE,24,2.0,7.0,87,0.00,,,0.02,18.0,meteohub,2013-01-29 22:41:00,
2013-01-29 16:47:00,34.2,30.7,29.78,North,355,2.0,7.0,87,0.00,,,0.02,18.0,meteohub,2013-01-29 22:47:00,
2013-01-29 16:53:00,34.2,30.7,29.79,NNW,338,0.0,8.0,87,0.00,,,0.02,11.0,meteohub,2013-01-29 22:53:00,
2013-01-29 17:00:00,34.0,30.6,29.78,NE,44,0.0,8.0,87,0.00,,,0.02,11.0,meteohub,2013-01-29 23:00:00,
2013-01-29 17:06:00,34.0,30.6,29.77,NNW,344,3.0,8.0,87,0.00,,,0.02,9.0,meteohub,2013-01-29 23:06:00,
2013-01-29 17:12:00,34.0,30.6,29.78,NW,325,4.0,9.0,87,0.00,,,0.02,5.0,meteohub,2013-01-29 23:12:00,
2013-01-29 17:19:00,33.8,30.4,29.79,NNW,344,2.0,9.0,87,0.00,,,0.02,0.0,meteohub,2013-01-29 23:19:00,
2013-01-29 17:25:00,33.8,30.6,29.79,NNE,15,2.0,9.0,88,0.00,,,0.02,0.0,meteohub,2013-01-29 23:25:00,
2013-01-29 17:31:00,33.8,30.4,29.79,North,355,3.0,7.0,87,0.00,,,0.02,0.0,meteohub,2013-01-29 23:31:00,
2013-01-29 17:37:00,33.4,29.7,29.80,NE,34,4.0,7.0,86,0.00,,,0.02,0.0,meteohub,2013-01-29 23:37:00,
2013-01-29 17:43:00,33.3,29.3,29.79,NNE,28,2.0,7.0,85,0.00,,,0.02,0.0,meteohub,2013-01-29 23:43:00,
2013-01-29 17:50:00,33.1,29.1,29.81,North,0,3.0,-999.0,85,0.00,,,0.02,0.0,meteohub,2013-01-29 23:50:00,
2013-01-29 17:56:00,32.9,28.9,29.82,NE,46,7.0,14.0,85,0.00,,,0.02,0.0,meteohub,2013-01-29 23:56:00,
2013-01-29 18:02:00,32.7,28.8,29.81,NE,43,5.0,14.0,85,0.00,,,0.02,0.0,meteohub,2013-01-30 00:02:00,
2013-01-29 18:08:00,32.7,28.8,29.82,NNE,17,8.0,14.0,85,0.00,,,0.02,0.0,meteohub,2013-01-30 00:08:00,
2013-01-29 18:14:00,32.5,28.2,29.83,North,0,4.0,13.0,84,0.00,,,0.02,0.0,meteohub,2013-01-30 00:14:00,
2013-01-29 18:21:00,32.4,27.9,29.83,NNW,347,6.0,13.0,83,0.00,,,0.02,0.0,meteohub,2013-01-30 00:21:00,
2013-01-29 18:27:00,32.4,28.0,29.84,NNW,330,6.0,13.0,84,0.00,,,0.02,0.0,meteohub,2013-01-30 00:27:00,
2013-01-29 18:33:00,32.2,27.9,29.84,North,350,5.0,13.0,84,0.00,,,0.02,0.0,meteohub,2013-01-30 00:33:00,
2013-01-29 18:39:00,32.0,28.0,29.84,North,0,6.0,9.0,85,0.00,,,0.02,0.0,meteohub,2013-01-30 00:39:00,
2013-01-29 18:45:00,31.8,27.9,29.84,North,355,4.0,9.0,85,0.00,,,0.02,0.0,meteohub,2013-01-30 00:45:00,
2013-01-29 18:52:00,31.6,27.7,29.84,NNW,340,3.0,9.0,85,0.00,,,0.02,0.0,meteohub,2013-01-30 00:52:00,
2013-01-29 18:58:00,31.5,27.0,29.85,NNW,347,3.0,9.0,83,0.00,,,0.02,0.0,meteohub,2013-01-30 00:58:00,
2013-01-29 19:04:00,31.3,27.0,29.82,North,355,3.0,9.0,84,0.00,,,0.02,0.0,meteohub,2013-01-30 01:04:00,
2013-01-29 19:10:00,30.9,26.6,29.82,North,355,4.0,10.0,84,0.00,,,0.02,0.0,meteohub,2013-01-30 01:10:00,
2013-01-29 19:17:00,30.6,26.2,29.81,NNW,331,4.0,10.0,84,0.00,,,0.02,0.0,meteohub,2013-01-30 01:17:00,
2013-01-29 19:23:00,30.4,26.4,29.79,North,355,4.0,10.0,85,0.00,,,0.02,0.0,meteohub,2013-01-30 01:23:00,
2013-01-29 19:29:00,30.4,26.4,29.82,NNW,328,3.0,10.0,85,0.00,,,0.02,0.0,meteohub,2013-01-30 01:29:00,
2013-01-29 19:35:00,30.2,26.2,29.82,NNE,12,2.0,13.0,85,0.00,,,0.02,0.0,meteohub,2013-01-30 01:35:00,
2013-01-29 19:41:00,30.2,26.2,29.84,North,355,4.0,13.0,85,0.00,,,0.02,0.0,meteohub,2013-01-30 01:41:00,
2013-01-29 19:47:00,30.0,26.1,29.84,North,349,3.0,13.0,85,0.00,,,0.02,0.0,meteohub,2013-01-30 01:47:00,
2013-01-29 19:52:00,30.0,26.1,29.84,NE,45,5.0,11.0,85,0.00,,,0.02,0.0,meteohub,2013-01-30 01:52:00,
2013-01-29 19:58:00,30.0,26.1,29.85,NNE,13,5.0,11.0,85,0.00,,,0.02,0.0,meteohub,2013-01-30 01:58:00,
2013-01-29 20:04:00,30.0,26.1,29.86,North,355,3.0,11.0,85,0.00,,,0.02,0.0,meteohub,2013-01-30 02:04:00,
2013-01-29 20:10:00,29.8,25.5,29.85,North,355,3.0,11.0,84,0.00,,,0.02,0.0,meteohub,2013-01-30 02:10:00,
2013-01-29 20:16:00,29.8,25.9,29.86,NNE,16,6.0,11.0,85,0.00,,,0.02,0.0,meteohub,2013-01-30 02:16:00,
2013-01-29 20:23:00,29.8,25.5,29.87,NNW,337,4.0,11.0,84,0.00,,,0.02,0.0,meteohub,2013-01-30 02:23:00,
2013-01-29 20:29:00,29.8,25.5,29.87,NNE,12,5.0,11.0,84,0.00,,,0.02,0.0,meteohub,2013-01-30 02:29:00,
2013-01-29 20:35:00,29.7,25.3,29.86,North,0,2.0,10.0,84,0.00,,,0.02,0.0,meteohub,2013-01-30 02:35:00,
2013-01-29 20:41:00,29.7,25.3,29.87,North,10,3.0,10.0,84,0.00,,,0.02,0.0,meteohub,2013-01-30 02:41:00,
2013-01-29 20:47:00,29.7,25.3,29.86,NNW,344,2.0,10.0,84,0.00,,,0.02,0.0,meteohub,2013-01-30 02:47:00,
2013-01-29 20:54:00,29.7,25.3,29.86,NNE,26,7.0,10.0,84,0.00,,,0.02,0.0,meteohub,2013-01-30 02:54:00,
2013-01-29 21:00:00,29.5,25.2,29.85,NNW,334,7.0,10.0,84,0.00,,,0.02,0.0,meteohub,2013-01-30 03:00:00,
2013-01-29 21:06:00,29.5,25.2,29.83,North,350,2.0,10.0,84,0.00,,,0.02,0.0,meteohub,2013-01-30 03:06:00,
2013-01-29 21:12:00,29.5,25.2,29.84,NNE,19,6.0,10.0,84,0.00,,,0.02,0.0,meteohub,2013-01-30 03:12:00,
2013-01-29 21:18:00,29.5,25.2,29.83,North,5,3.0,10.0,84,0.00,,,0.02,0.0,meteohub,2013-01-30 03:18:00,
2013-01-29 21:25:00,29.5,25.5,29.84,NNE,24,3.0,10.0,85,0.00,,,0.02,0.0,meteohub,2013-01-30 03:25:00,
2013-01-29 21:31:00,29.3,25.3,29.83,NE,38,9.0,12.0,85,0.00,,,0.02,0.0,meteohub,2013-01-30 03:31:00,
2013-01-29 21:37:00,29.3,25.3,29.84,North,0,4.0,12.0,85,0.00,,,0.02,0.0,meteohub,2013-01-30 03:37:00,
2013-01-29 21:43:00,29.3,25.2,29.84,North,0,3.0,12.0,84,0.00,,,0.02,0.0,meteohub,2013-01-30 03:43:00,
2013-01-29 21:49:00,29.3,25.2,29.85,North,5,5.0,12.0,84,0.00,,,0.02,0.0,meteohub,2013-01-30 03:49:00,
2013-01-29 21:55:00,29.3,25.2,29.86,North,351,3.0,14.0,84,0.00,,,0.02,0.0,meteohub,2013-01-30 03:55:00,
2013-01-29 22:02:00,29.3,25.3,29.87,North,355,2.0,14.0,85,0.00,,,0.02,0.0,meteohub,2013-01-30 04:02:00,
2013-01-29 22:08:00,29.5,25.2,29.88,North,10,2.0,14.0,84,0.00,,,0.02,0.0,meteohub,2013-01-30 04:08:00,
2013-01-29 22:14:00,29.5,25.2,29.88,North,351,4.0,10.0,84,0.00,,,0.02,0.0,meteohub,2013-01-30 04:14:00,
2013-01-29 22:20:00,29.5,25.2,29.88,NNE,23,3.0,10.0,84,0.00,,,0.02,0.0,meteohub,2013-01-30 04:20:00,
2013-01-29 22:26:00,29.5,25.0,29.89,North,11,5.0,10.0,83,0.00,,,0.02,0.0,meteohub,2013-01-30 04:26:00,
2013-01-29 22:32:00,29.5,25.2,29.88,North,5,5.0,12.0,84,0.00,,,0.02,0.0,meteohub,2013-01-30 04:32:00,
2013-01-29 22:37:00,29.5,25.2,29.88,NNW,342,1.0,12.0,84,0.00,,,0.02,0.0,meteohub,2013-01-30 04:37:00,
2013-01-29 22:43:00,29.5,25.0,29.89,NW,325,3.0,12.0,83,0.00,,,0.02,0.0,meteohub,2013-01-30 04:43:00,
2013-01-29 22:49:00,29.5,25.0,29.87,NNW,344,3.0,12.0,83,0.00,,,0.02,0.0,meteohub,2013-01-30 04:49:00,
2013-01-29 22:55:00,29.3,25.2,29.86,North,5,4.0,10.0,84,0.00,,,0.02,0.0,meteohub,2013-01-30 04:55:00,
2013-01-29 23:02:00,29.1,25.0,29.86,NNW,338,6.0,10.0,84,0.00,,,0.02,0.0,meteohub,2013-01-30 05:02:00,
2013-01-29 23:04:00,28.9,24.8,29.86,NNW,335,3.0,10.0,84,0.00,,,0.02,0.0,meteohub,2013-01-30 05:04:00,
2013-01-29 23:06:00,28.9,24.8,29.86,NNE,20,2.0,10.0,84,0.00,,,0.02,0.0,meteohub,2013-01-30 05:06:00,
2013-01-29 23:12:00,28.8,24.6,29.86,NNW,347,4.0,12.0,84,0.00,,,0.02,0.0,meteohub,2013-01-30 05:12:00,
2013-01-29 23:14:00,28.8,24.6,29.86,North,5,3.0,12.0,84,0.00,,,0.02,0.0,meteohub,2013-01-30 05:14:00,
2013-01-29 23:20:00,28.8,24.6,29.87,NNE,21,4.0,12.0,84,0.00,,,0.02,0.0,meteohub,2013-01-30 05:20:00,
2013-01-29 23:27:00,28.6,24.4,29.87,North,355,4.0,12.0,84,0.00,,,0.02,0.0,meteohub,2013-01-30 05:27:00,
2013-01-29 23:32:00,28.6,24.1,29.85,North,0,2.0,14.0,83,0.00,,,0.02,0.0,meteohub,2013-01-30 05:32:00,
2013-01-29 23:37:00,28.2,24.1,29.85,NNE,30,4.0,14.0,84,0.00,,,0.02,0.0,meteohub,2013-01-30 05:37:00,
2013-01-29 23:43:00,28.2,24.1,29.86,North,5,2.0,14.0,84,0.00,,,0.02,0.0,meteohub,2013-01-30 05:43:00,
2013-01-29 23:49:00,28.2,24.1,29.86,NNW,340,5.0,14.0,84,0.00,,,0.02,0.0,meteohub,2013-01-30 05:49:00,
2013-01-29 23:56:00,28.0,23.9,29.88,North,351,5.0,11.0,84,0.00,,,0.02,0.0,meteohub,2013-01-30 05:56:00,